Starlink 30844

operational
NORAD ID: 58403 Int'l Des: 2023-180 Owner: SPXS Country: US Constellation: starlink
LEOCIRCULAR

关于 Starlink 30844

正在加载描述...

实时位置

正在加载3D地球...

即将过境

高度历史

Altitude vs Time

uPlot chart will show altitude changes over time

两行轨道根数

1 58403U 23180B 25300.69128330 -.00004242 00000-0 -29895-3 0 9996
2 58403 43.0046 59.1372 0001383 267.7788 92.2896 15.02557044107463
Epoch: Oct 27, 2025 • Age: 18 hours

当前状态

高度 562.9 km
速度 7.59 km/s
星下点 42.12°N, 35.46°W
发射日期 Nov 22, 2023
运行时间 1.9 years
类型 internet

技术详情

分类 Payload
质量 730.00 kg
干质量 700.00 kg
总质量 730.00 kg
长度 0.30 m
直径 4.10 m
跨度 29.00 m
形状 Box + pan
制造商 SPXS
平台类型 Starlink V2M
阶段状态 In Orbit
所有者/国家 SPXS/US

大型星座

Loading constellations...